Погода в Березе

Россия / Псковская область     58°01′14″N   29°41′52″E
темп.,
°C
ветер,
м/с
пор.,
м/с
влажн.,
%
обл.,
%
осадки,
мм/ч
давл.,
гПа
погр.,
м
11 мая, вт
вт1100:00+11ю31383100 0.0 1024319
03:00+8ю299198 0.0 1026191
06:00+9ююв2108620 0.0 1026252
09:00+15ю485822 0.0 1026499
12:00+19ю46437 0.0 10261028
15:00+20ююв454192 0.0 10251231
18:00+20ююв35526 0.0 10241018
21:00+13юв22755 0.0 102422
12 мая, ср
ср1200:00+10ююв29810 0.0 1025161
03:00+8юв268069 0.0 1025105
06:00+9юв258111 0.0 1025114
09:00+16юв35660 0.0 1025400
12:00+21юв46581 0.0 10241218
15:00+23юв354878 0.0 10222111
18:00+19всв2371100 0.0 1020100
21:00+17св31077100 0.0 1018244
13 мая, чт
чт1300:00+16в4147610 0.1 1017637
03:00+14вюв611770 0.1 1016928
06:00+9юв411836 0.0 1018705
09:00+12вюв510660 0.0 1017916
12:00+16вюв51158100 0.0 10151776
15:00+15юв5116538 0.3 10141539
18:00+16ююв5116132 0.8 10141628
21:00+12ююв277694 0.8 1014267
14 мая, пт
пт1400:00+9вюв26909 0.0 1014129
03:00+8вюв399358 0.0 1013211
06:00+9вюв312855 0.0 1013386
09:00+14юв510675 0.0 1012627
12:00+19ююв57497 0.0 10121540
15:00+20ююв4750100 0.0 10111987
18:00+20юв365612 0.0 10101357
21:00+14вюв248053 0.0 100977
15 мая, сб
сб1500:00+11юв25955 0.0 1009110
03:00+11вюв22988 0.0 100830
06:00+12в269571 0.0 1007170
09:00+16ю358590 0.3 1006577
12:00+16ююз3684100 0.2 1007690
15:00+19в227499 2.9 1006835
18:00
21:00+13зсз26967 1.9 1007133